Portada
METAR-TAF:

METAR-TAF

Aeroports :

Fairfield Municipal Airport

Fairfield, Iowa, Estats Units d'Amèrica

latitud: 41-03N, longitud: 091-59W, altitud: 244 m

Observació

L'informe es va fer fa 16 minuts, a les 12:55 UTC
Vent 8 kt del Sud/Sud-Oest amb ràfegues de 13 kt
Temperatura 1°C
Humitat 80%
Pressió 1023 hPa
Visibilitat: 16.1 km
Cel clar

METAR: KFFL 161255Z AUTO 21008G13KT 10SM CLR 01/M02 A3020 RMK AO2 PWINO

Hora: 08:11 (13:11 UTC)


TAF: manca

Observacions i pronòstics meteorològics de més de 4000 aeroports (METAR i TAF).

Les estacions disponibles són els punts grocs i vermells al mapa.

Posi el ratolí al punt desitjat per veure el nom de l'estació.

Feu clic per veure les observacions i els pronòstics meteorològics.

Per canviar el mapa: feu clic els botons verds amb una creu de color negre per apropar; al botó verd amb un guió per allunyar la imatge; o en les fletxes verdes per a mapes adjacents.


METAR-TAF: